Regional Weather Roundup
Issued by NWS

Home | Current Version | Previous Version | Graphics & Text | Print | Product List | Glossary On
Versions: 1 2 3 4 5 6 7 8 9 10 11 12 13 14 15 16 17 18 19 20 21 22 23 24 25 26 27 28 29 30 31 32 33 34 35 36 37 38 39 40 41 42 43 44 45 46 47 48 49 50
000
ASUS43 KOAX 221402
RWRNE

WEATHER ROUNDUP FOR NEBRASKA
NATIONAL WEATHER SERVICE OMAHA NE
900 AM CDT FRI SEP 22 2017

NOTES: SATELLITE DATA IS BEING USED TO AUGMENT CLOUD COVER ABOVE
       12000 FEET.
       "FAIR" INDICATES FEW OR NO CLOUDS BELOW 12,000 FEET WITH NO
       SIGNIFICANT WEATHER AND/OR OBSTRUCTIONS TO VISIBILITY.


NEZ001>004-019>022-054>056-221500-
NEBRASKA PANHANDLE

CITY           SKY/WX    TMP DP  RH WIND       PRES   REMARKS
SCOTTSBLUFF    SUNNY     46  40  79 NW9       29.80S
ALLIANCE       SUNNY     49  41  74 N16       29.76S
CHADRON        CLOUDY    49  36  61 W6        29.81R
GORDON         CLOUDY    51  41  68 N9        29.76S
KIMBALL        CLOUDY    48  39  72 NW8       29.82R
SIDNEY         SUNNY     49  41  74 NW9       29.80R
$$

NEZ057>060-069>072-079>082-221500-
SOUTHWEST NEBRASKA

CITY           SKY/WX    TMP DP  RH WIND       PRES   REMARKS
NORTH PLATTE   SUNNY     74  62  66 S9G17     29.72R
IMPERIAL       SUNNY     64  46  52 SW6       29.75R
LEXINGTON      SUNNY     78  64  61 S18G24    29.74S
MCCOOK         LGT RAIN  76  61  59 SW20      29.74R
OGALLALA       SUNNY     56  44  65 NW7       29.76R
$$

NEZ005>010-023>029-035>040-094-221500-
NORTH CENTRAL NEBRASKA

CITY           SKY/WX    TMP DP  RH WIND       PRES   REMARKS
VALENTINE      SUNNY     56  46  69 W14       29.71R
AINSWORTH      SUNNY     73  66  78 S15       29.69R
BROKEN BOW     SUNNY     76  65  68 S17       29.73R
O`NEILL        SUNNY     78  68  73 S21G28    29.69S
ORD            SUNNY     77  65  66 S20G31    29.71S
THEDFORD       SUNNY     74  61  65 S13G24    29.71R
$$

NEZ041-046>049-061>064-073>077-083>087-221500-
SOUTH CENTRAL NEBRASKA

CITY           SKY/WX    TMP DP  RH WIND       PRES   REMARKS
GRAND ISLAND   MOSUNNY   77  68  73 S18G28    29.77S
AURORA         MOSUNNY   76  68  77 S14G25    29.79S
HASTINGS       SUNNY     77  66  68 S12G22    29.79S
HEBRON         SUNNY     78  68  71 S17       29.82S
HOLDREGE       SUNNY     77  63  61 S15G26    29.76S
KEARNEY        SUNNY     77  66  68 S21G29    29.76S
YORK           SUNNY     77  68  73 S16G25    29.80S
$$

NEZ011>018-030>034-042>045-221500-
NORTHEAST NEBRASKA

CITY           SKY/WX    TMP DP  RH WIND       PRES   REMARKS
NORFOLK        MOSUNNY   78  69  73 S17G29    29.74F
ALBION         SUNNY     77  69  76 S15G24    29.75S
BLAIR          SUNNY     79  69  72 S17G24    29.83S
COLUMBUS       SUNNY     78  69  73 S16G23    29.78S
FREMONT        SUNNY     78  68  72 S16G22    29.81S
TEKAMAH        SUNNY     79  69  71 S12       29.81R
WAYNE          SUNNY     76  73  91 S17G26    29.76S
$$

NEZ050>053-065>068-078-088>093-221500-
SOUTHEAST NEBRASKA

CITY           SKY/WX    TMP DP  RH WIND       PRES   REMARKS
LINCOLN        MOSUNNY   78  68  71 S17       29.82S
OMAHA EPPLEY   MOSUNNY   79  69  71 S20       29.84R
BEATRICE       SUNNY     78  69  73 S14G23    29.84F
FALLS CITY     SUNNY     77  70  79 S14       29.90R
NEBRASKA CITY  SUNNY     77  73  86 S14       29.88R
PLATTSMOUTH    MOSUNNY   78  71  78 S12G21    29.86S
$$

NEZ044-045-051>053-067-221500-
OMAHA AREA

CITY           SKY/WX    TMP DP  RH WIND       PRES   REMARKS
OMAHA EPPLEY   MOSUNNY   79  69  71 S20       29.84R
BLAIR          SUNNY     79  69  72 S17G24    29.83S
FREMONT        SUNNY     78  68  72 S16G22    29.81S
MILLARD        SUNNY     82  71  68 S10G22    29.84R
OFFUTT AFB     SUNNY     78  70  75 SE9       29.84R
PLATTSMOUTH    MOSUNNY   78  71  78 S12G21    29.86S
WAHOO          FAIR      79  68  69 S14       29.82S
$$




USA.gov is the U.S. government's official web portal to all federal, state and local government web resources and services.